Location: Boitzum
(52.1496°N, 9.6943°E)
Time: 23:28:52
(UTC+00:00)

GRACE-FO 1 - Pass Details

Date: 13 January 2026
Orbit: 449 x 460 km, 89.0° (Epoch: 7 February)

Event Time Altitude Azimuth Distance (km) Brightness Sun altitude
Rises 06:31:30 0° 181° (S) 2,449 8.5 -7.9°
Reaches altitude 10° 06:33:32 10° 183° (S) 1,584 7.5 -7.6°
Maximum altitude 06:36:58 80° 270° (W) 468 4.4 -7.1°
Drops below altitude 10° 06:40:26 10° 358° (N) 1,606 6.9 -6.7°
Sets 06:42:31 0° 360° (N) 2,488 7.9 -6.4°
